Lobo

Go HERE for most recent data if this page is not up to date.

Jump to table bottom
Date/Time Temp deg F RH % 24 Hr Snow (in) Snow Depth (in) H2O (in)
10/21 05:00 19.1 90 "NAN" 14.2 0.01
10/21 04:00 18.7 85 "NAN" 13.4 0.02
10/21 03:00 19.2 85 "NAN" 13.0 0.00
10/21 02:00 19.6 82 "NAN" 12.6 0.00
10/21 01:00 19.1 75 "NAN" 13.0 0.00
10/21 00:00 18.5 81 "NAN" 13.0 0.00
10/20 23:00 18.5 80 "NAN" 13.1 0.00
10/20 22:00 18.6 73 "NAN" 13.2 0.00
10/20 21:00 18.8 72 "NAN" 13.1 0.00
10/20 20:00 19.5 77 "NAN" 13.2 0.00
10/20 19:00 19.6 77 "NAN" 13.2 0.00
10/20 18:00 20.0 79 "NAN" 13.1 0.03
10/20 17:00 20.3 91 "NAN" 12.9 0.01
10/20 16:00 21.1 90 "NAN" 12.1 0.00
10/20 15:00 21.4 66 "NAN" 12.5 0.00
10/20 14:00 22.7 62 "NAN" 12.5 0.00
10/20 13:00 19.8 61 "NAN" 13.1 0.00
10/20 12:00 20.7 73 "NAN" 12.8 0.00
10/20 11:00 19.0 76 "NAN" 13.5 0.02
10/20 10:00 18.6 84 "NAN" 13.6 0.04
10/20 09:00 18.7 89 "NAN" 13.5 0.04
10/20 08:00 18.6 90 "NAN" 12.8 0.00
10/20 07:00 18.5 87 "NAN" 11.3 0.00
10/20 06:00 18.5 85 "NAN" 11.9 0.00
10/20 05:00 18.4 86 "NAN" 11.9 0.00
10/20 04:00 18.5 86 "NAN" 11.9 0.01
10/20 03:00 18.7 84 "NAN" 12.0 0.02
10/20 02:00 18.9 85 "NAN" 11.3 0.00
10/20 01:00 19.1 81 "NAN" 12.0 0.04
10/20 00:00 19.6 85 "NAN" 11.8 0.02
.